Location: Louisville
(33.0010°N, 82.4110°W)
Time: 19:37:38
(UTC-04:00)

N. Korean satellite - Visible Passes

Search period start: 23 September 2018 00:00
Search period end: 03 October 2018 00:00
Orbit: 458 x 511 km, 97.2° (Epoch: 23 September)

Date Brightness Start Highest point End Pass type
(mag) Time Alt. Az. Time Alt. Az. Time Alt. Az.
25 Sep 10.5 06:48:19 10° ENE 06:49:44 12° E 06:51:10 10° ESE visible
26 Sep 9.8 20:01:19 10° SW 20:03:43 17° W 20:06:09 10° NW visible
29 Sep 10.8 06:45:03 10° E 06:45:45 10° E 06:46:28 10° ESE visible
30 Sep 9.7 19:57:03 10° SW 19:59:42 20° W 20:02:23 10° NW visible
01 Oct 8.0 19:31:52 10° S 19:35:15 43° W 19:38:43 10° NNW visible
